Location: East Junction
(35.0756°N, 90.0518°W)
Time: 02:18:57
(UTC+00:00)

Daily predictions for brighter satellites

Satellite Brightness Start Highest point End
(mag) Time Altitude Azimuth Time Altitude Azimuth Time Altitude Azimuth
Cosmos 2195 Rocket 4.5 01:37:45 10° S 01:43:50 81° E 01:50:00 10° N
CSL-04 Rocket 3.9 01:39:22 10° SSE 01:44:28 52° ENE 01:49:37 10° N
Okean O Rocket 2.2 01:41:42 10° SE 01:45:50 41° ENE 01:49:56 10° N
Tiangong -0.4 01:43:26 10° NW 01:46:15 28° N 01:49:03 10° ENE
Cosmos 1470 Rocket 4.5 01:44:14 10° NNE 01:48:05 30° ENE 01:51:53 10° SE
NOSS 3-4 (A) 4.2 01:42:25 10° NNW 01:49:44 83° WSW 01:58:04 10° SSE
NOSS 3-4 (C) 4.1 01:42:28 10° NNW 01:49:46 84° WSW 01:58:03 10° SSE
ASTRO E2 4.1 01:47:52 10° SSW 01:50:00 15° SSE 01:52:07 10° ESE
COSMOS 2406 3.3 01:48:27 10° SSW 01:54:12 85° ESE 01:59:59 10° NNE
Cosmos 1666 Rocket 3.5 01:51:01 10° N 01:55:22 81° E 01:59:44 10° S
Cosmos 1092 Rocket 4.1 01:49:11 10° S 01:55:29 83° E 02:01:52 10° N
Cosmos 1766 3.7 01:52:08 10° N 01:55:41 40° E 01:59:13 10° SSE
Cosmos 1674 2.8 01:53:19 10° SSE 01:56:36 43° E 01:59:55 10° NNE
CSL-04 Debris 4.2 01:52:00 10° SSE 01:57:24 77° ENE 02:02:48 10° N
Cosmos 1980 Rocket 2.4 01:52:36 10° NNW 01:58:14 60° ENE 02:03:47 10° SSE
SPOT 1/Viking Rocket 4.3 01:54:11 10° S 01:59:10 53° W 02:04:12 10° NNW
Cosmos 1763 Rocket 4.3 01:55:57 10° N 02:00:45 36° ENE 02:05:10 12° SE
ATLAS CENTAUR R/B 2.8 02:01:45 12° ESE 02:02:17 12° ESE 02:03:42 10° E
USA 234 3.2 02:00:47 10° NE 02:07:17 68° SE 02:13:46 10° SW
Centaur AC-119 4.5 02:03:50 10° SW 02:08:18 34° SSE 02:20:20 10° E
IRIDIUM 114 4.4 02:09:01 10° N 02:14:11 59° E 02:19:19 10° SSE
Resurs 01 Rocket 2.0 02:10:20 10° S 02:14:42 66° W 02:19:05 10° NNW
Terra 3.5 02:16:12 12° ESE 02:18:45 18° ENE 02:21:53 10° NNE
IRIDIUM 103 4.3 02:18:07 10° N 02:23:21 74° E 02:28:33 10° S
ARGOS Delta rocket 4.3 02:23:05 17° SE 02:26:01 37° ENE 02:30:05 10° N
Lacrosse 5 rocket 3.9 02:24:28 10° W 02:26:21 13° WSW 02:28:13 10° SW
Cosmos 1470 3.0 02:23:56 10° N 02:27:29 44° E 02:29:33 22° SE
CZ-4 R/B 3.9 02:26:36 10° SW 02:29:22 18° W 02:32:09 10° NW
CZ-4B R/B 4.2 02:25:26 10° S 02:30:24 42° W 02:35:26 10° NNW
Cosmos 468 Rocket 4.4 02:26:51 10° N 02:31:52 46° ENE 02:35:01 21° SE
KORONAS-FOTON 4.0 02:29:23 10° SSW 02:33:04 70° W 02:36:47 10° N
Cosmos 1842 3.9 02:35:12 10° SSW 02:38:45 51° W 02:42:20 10° N
SJ 16-02 3.4 02:40:04 12° E 02:40:04 12° E 02:40:58 10° ENE
ATLAS 2AS CENTAUR R/B 4.5 02:40:34 10° N 02:45:05 18° NE 02:49:31 10° E
IRS-1C Rocket 4.2 02:45:32 23° SSE 02:48:43 61° ENE 02:53:54 10° N
In-Cosmos 22 4.1 02:43:39 10° S 02:49:13 74° E 02:54:46 10° NNE
Cosmos 2360 Rocket 4.0 02:45:53 10° NNE 02:49:34 17° NE 02:52:15 13° E
Cosmos 540 Rocket 3.4 02:46:11 10° NNW 02:51:21 81° ENE 02:54:15 26° SSE
RESURS DK-1 4.1 02:51:37 10° NNE 02:54:33 19° ENE 02:55:35 17° ENE
Cosmos 968 Rocket 4.1 02:57:17 30° SE 02:58:38 35° E 03:03:18 10° NE
SL-16 R/B 2.7 02:55:25 10° N 03:00:50 44° ENE 03:03:14 29° ESE
MOS 1 Rocket 4.2 02:59:27 29° ESE 03:01:39 43° ENE 03:06:41 10° N
Cosmos 1741 Rocket 4.1 02:58:35 23° S 03:01:43 56° ESE 03:06:53 10° NNE
Okean-O 3.4 02:58:43 17° S 03:01:50 49° W 03:06:07 10° NNW
Cosmos 2333 Rocket 3.9 02:58:30 10° N 03:02:44 21° ENE 03:05:07 16° E
Cosmos 1707 4.3 03:00:34 10° SW 03:03:47 31° W 03:07:01 10° NNW
SeaSat 1 2.8 03:02:21 31° ESE 03:04:22 50° ENE 03:09:07 10° NNW
Cosmos 2369 4.5 02:59:10 10° NNW 03:04:38 47° WSW 03:08:36 18° S
Cosmos 1733 Rocket 4.5 03:01:59 10° NNE 03:05:27 22° ENE 03:05:48 22° E
Atlas Centaur 2 3.1 03:01:23 10° W 03:09:24 62° S 03:14:18 26° ESE
Cosmos 1758 4.3 03:06:48 10° NNE 03:10:16 30° ENE 03:10:17 30° E
Cosmos 1833 4.4 03:08:31 32° SSE 03:10:34 46° ESE 03:15:55 10° NE
USA 245 2.9 03:10:21 61° ESE 03:10:43 68° ENE 03:14:37 10° N
Cosmos 381 Rocket 4.5 03:07:01 10° NNW 03:13:22 83° WSW 03:16:43 30° S
SPOT 5 3.2 03:14:18 26° SSW 03:16:24 51° W 03:20:37 10° NNW
IRS-1A Rocket 4.3 03:14:38 29° S 03:17:34 75° WSW 03:23:05 10° NNW
SL-08 ROCKET BODY 4.4 03:14:48 19° S 03:19:22 84° W 03:25:29 10° N
Cosmos 2228 Rocket 3.1 03:18:36 48° SSE 03:19:39 64° E 03:24:10 10° NNE
Okean O Rocket 4.2 03:19:49 10° SW 03:22:14 14° W 03:24:37 10° WNW
Tiangong -1.7 03:20:06 10° WNW 03:22:45 59° WNW 03:22:45 59° WNW
Cosmos 1356 Rocket 3.3 03:25:55 63° SSE 03:26:30 76° E 03:30:41 10° NNE
Spot 1 4.3 03:23:12 10° NNE 03:27:47 58° ESE 03:28:28 52° SE
Cosmos 1869 Rocket 3.9 03:24:29 10° NNW 03:28:54 62° W 03:30:18 40° SSW
Cosmos 1400 Rocket 3.8 03:28:43 25° SW 03:30:35 43° W 03:34:17 10° N
Meteor 1-12 Rocket 4.3 03:24:53 10° N 03:30:55 73° E 03:32:55 44° SSE
S3M 4.0 03:25:22 10° N 03:31:44 81° W 03:34:41 34° S
ERS-1 Rocket 3.2 03:30:43 37° SSW 03:32:38 63° W 03:37:37 10° NNW
Cosmos 1655 Rocket 4.1 03:34:27 27° SSW 03:38:07 80° W 03:44:33 10° N
Meteor 1-22 Rocket 4.4 03:33:50 10° NNW 03:39:31 71° W 03:41:50 38° S
ATLAS CENTAUR R/B 2.7 03:36:29 10° WSW 03:39:33 32° NW 03:42:45 10° N
Cosmos 841 Rocket 3.4 03:35:32 10° NNW 03:40:49 84° WSW 03:41:59 55° S
Cosmos 2322 Rocket 2.3 03:38:10 10° NNW 03:43:48 64° ENE 03:44:58 52° ESE
Spot 2 Rocket 3.6 03:42:27 47° SSW 03:43:48 68° W 03:48:52 10° NNW
Cosmos 1300 3.0 03:40:23 10° N 03:43:15 55° N 03:43:15 55° N
Aureole 3 3.6 03:48:02 60° NNE 03:48:02 60° NNE 03:51:47 10° N
Cosmos 1315 Rocket 4.1 03:49:43 31° NE 03:49:43 31° NE 03:52:10 10° NNE
Meteor 2-10 Rocket 3.8 03:49:49 10° NNW 03:55:16 67° W 03:56:28 51° SSW
Cosmos 2278 4.4 03:50:04 10° NW 03:55:28 45° WSW 03:57:04 36° SW
Cosmos 1862 Rocket 3.7 03:55:14 63° WSW 03:55:35 66° W 03:59:59 10° N
Cosmos 1953 4.2 03:52:49 10° NNE 03:54:38 20° NE 03:54:38 20° NE
Terra 2.7 03:54:54 34° SW 03:56:00 40° W 04:00:25 10° NNW
Meteor 1-21 4.4 03:54:03 38° SSW 03:56:16 70° W 04:02:05 10° N
Cosmos 1244 Rocket 4.5 03:56:23 55° SE 03:57:31 66° E 04:03:45 10° NNE
Landsat 5 4.0 04:01:48 10° N 04:05:44 51° WNW 04:05:57 50° W
Okean 3 3.9 04:08:31 55° WNW 04:08:31 55° WNW 04:12:21 10° N
Ariane Rocket 3.9 04:07:33 36° SW 04:08:35 40° W 04:13:21 10° NNW
Cosmos 2219 Rocket 2.9 04:04:05 10° N 04:09:23 39° ENE 04:09:56 38° ENE
SJ 16-02 2.2 04:16:45 42° W 04:17:04 43° WNW 04:21:11 10° N
COSMOS 2455 3.7 04:24:43 35° ENE 04:24:43 35° ENE 04:28:51 10° NE
CZ-4C R/B 3.8 04:28:06 17° ENE 04:28:06 17° ENE 04:29:25 10° NE
SL-08 R/B 4.3 04:25:30 74° S 04:26:07 89° E 04:32:13 10° N
Cosmos 1346 Rocket 4.4 04:23:37 10° NNW 04:26:15 29° WNW 04:26:15 29° WNW
ARIANE 5 R/B 3.7 04:31:12 38° NNE 04:31:12 38° NNE 04:34:13 10° N
RESURS DK-1 4.2 04:28:44 10° NW 04:31:10 25° WNW 04:31:10 25° WNW
Cosmos 2360 Rocket 2.3 04:28:23 10° NNW 04:33:58 61° WSW 04:34:00 61° WSW
ATLAS 2AS CENTAUR R/B 2.4 04:30:06 10° NNW 04:36:52 89° SW 04:37:28 76° SSE
SeaSat 1 4.4 04:42:03 17° WSW 04:42:03 17° WSW 04:45:11 10° WNW
SL-16 R/B 3.9 04:40:22 10° NW 04:44:32 21° W 04:45:05 21° WSW
Cosmos 1455 4.4 04:42:40 10° N 04:44:05 23° NNW 04:44:05 23° NNW
USA 281 3.2 04:45:41 62° E 04:46:25 67° ENE 04:52:56 10° NNW
Cosmos 2333 Rocket 2.7 04:41:43 10° NNW 04:47:07 52° W 04:47:07 52° W
Okean 1-7 4.5 04:47:58 32° WNW 04:47:58 32° WNW 04:51:23 10° NNW
CZ-2C R/B 3.4 04:50:23 65° ENE 04:50:23 65° ENE 05:01:58 10° N
GP-B 4.2 04:50:19 10° N 04:53:24 43° NNW 04:53:24 43° NNW
Atlas Centaur 2 3.7 04:50:47 10° W 04:56:31 36° SW 04:56:31 36° SW
Meteor 1-24 Rocket 4.4 05:08:46 46° ENE 05:08:46 46° ENE 05:13:16 10° NNE
Cosmos 2227 Rocket 3.9 05:10:41 21° ENE 05:10:41 21° ENE 05:13:15 10° NE
Cosmos 2237 Rocket 3.9 05:04:19 10° N 05:08:36 22° ENE 05:09:21 21° ENE
Cosmos 1745 Rocket 4.1 05:08:42 68° W 05:08:56 69° W 05:15:17 10° N
Cosmos 2322 3.9 05:05:30 10° NNW 05:10:29 66° NNE 05:10:29 66° NNE
Cosmos 839 Rocket 4.1 05:06:11 10° NW 05:12:09 63° W 05:12:09 63° W
ALOS 2 4.1 05:23:09 34° NNE 05:23:09 34° NNE 05:25:46 10° N
Nadezhda 1 Rocket 4.2 05:18:31 10° NNW 05:24:27 62° W 05:24:27 62° W
Cosmos 2322 Rocket 4.4 05:24:15 10° WNW 05:26:46 14° W 05:26:46 14° W
Cosmos 2297 Rocket 2.6 05:29:40 57° NNE 05:29:40 57° NNE 05:34:08 10° NNE
CENTAUR R/B 3.6 05:33:37 29° ENE 05:33:37 29° ENE 05:37:14 10° NE
CZ-3 Stage 3 3.7 05:09:09 10° W 05:35:35 57° SSW 05:35:53 57° SSW
Meteor 2-5 Rocket 4.0 05:41:48 68° NNW 05:41:48 68° NNW 05:46:59 10° N
COSMOS 2428 3.4 05:46:57 10° NNW 05:51:11 46° WNW 05:51:11 46° WNW
Cosmos 2219 Rocket 3.9 05:48:33 10° NW 05:51:37 22° W 05:51:37 22° W
Cosmos 2263 Rocket 3.8 06:03:48 24° ENE 06:03:48 24° ENE 06:06:50 10° NE
COSMOS 2455 4.3 06:07:48 26° WNW 06:09:15 29° NW 06:14:25 10° N
SL-12 R/B(2) 4.0 06:09:01 75° SSE 06:09:41 80° ESE 06:18:46 10° NNE
NOSS 0 Rocket 4.3 06:04:52 10° NNW 06:10:02 57° WNW 06:10:02 57° WNW
CZ-4C R/B 3.7 06:13:09 22° NW 06:13:34 22° NW 06:17:38 10° N
NOSS 3-2 (A) 4.1 06:18:58 37° ENE 06:18:58 37° ENE 06:22:39 10° NE
Nadezhda 3 Rocket 4.5 06:14:12 10° N 06:20:16 49° E 06:20:16 49° E
Cosmos 2184 Rocket 4.0 06:22:41 77° NNW 06:22:41 77° NNW 06:28:39 10° N
Cosmos 967 Rocket 4.5 06:39:22 81° NE 06:39:22 81° NE 06:45:32 10° NNE
Cosmos 2154 Rocket 4.0 06:39:30 72° NW 06:39:30 72° NW 06:45:24 10° N
SL-16 R/B 3.1 06:40:26 10° N 06:45:47 40° ENE 06:46:35 38° E
SL-4 R/B 4.2 06:43:26 10° NW 06:45:06 22° NNW 06:45:06 22° NNW
Cosmos 2082 4.0 06:51:06 61° NE 06:51:06 61° NE 06:55:53 10° NNE
Cosmos 2227 Rocket 3.2 06:52:28 36° WNW 06:52:28 36° WNW 06:57:37 10° N
H-2A R/B 4.2 06:49:17 10° NNW 06:51:12 19° NW 06:51:12 19° NW
Cosmos 2237 Rocket 3.2 06:47:29 10° NW 06:51:07 35° WNW 06:51:07 35° WNW
SL-8 Rocket 4.4 06:57:10 51° E 06:57:25 52° E 07:03:23 10° NNE
IDEFIX/ARIANE 42P 4.0 06:53:17 10° NE 06:57:28 28° E 06:57:28 28° E
Meteor 1-11 4.4 07:04:41 64° E 07:04:41 64° E 07:10:16 10° NNE
Cosmos 962 Rocket 4.4 07:06:13 84° SE 07:06:22 86° E 07:12:45 10° N
Cosmos 1455 Rocket 4.2 07:02:44 10° N 07:05:42 41° N 07:05:42 41° N
CZ-2D R/B 3.7 07:03:08 10° NE 07:07:24 24° E 07:07:38 24° E
Cosmos 1538 Rocket 4.3 07:03:56 10° NNW 07:08:16 63° N 07:08:16 63° N
Cosmos 2219 3.9 07:15:09 43° WNW 07:15:09 43° WNW 07:20:24 10° N
Cosmos 372 Rocket 4.2 07:22:07 66° NNW 07:22:07 66° NNW 07:26:47 10° NNE
CENTAUR R/B 3.6 07:20:44 27° WNW 07:22:12 30° NW 07:27:59 10° NNE
NPP 4.1 07:19:23 10° NNE 07:24:39 51° E 07:24:45 51° ESE
Cosmos 2341 Rocket 3.8 07:27:49 77° SW 07:28:10 80° W 07:34:24 10° N
USA 238 DEB 3.9 07:28:50 46° SE 07:29:14 46° ESE 07:35:20 10° NE
USA 238 3.9 07:28:52 45° SE 07:29:17 46° ESE 07:35:23 10° NE
ADEOS II 3.5 07:28:54 10° NE 07:33:22 28° E 07:34:18 26° ESE
Cosmos 1461 4.2 07:36:27 34° N 07:36:27 34° N 07:39:01 10° NNE
Cosmos 923 Rocket 4.2 07:32:00 10° N 07:37:13 63° ENE 07:37:48 58° ESE
Cosmos 1937 Rocket 3.7 07:38:33 60° WNW 07:38:33 60° WNW 07:43:32 10° N
Cosmos 864 Rocket 4.3 07:38:09 71° SSW 07:38:52 83° W 07:45:15 10° N
MOZ.5/SAFIR/RUBIN 5/SL-8 3.9 07:39:56 71° N 07:39:56 71° N 07:44:06 10° N
Cosmos 1898 Rocket 4.3 07:42:11 38° WNW 07:42:11 38° WNW 07:46:49 10° N
Meteor 2-1 Rocket 4.1 07:36:25 10° N 07:42:19 82° W 07:42:41 77° SSW
Cosmos 2263 Rocket 3.1 07:45:28 34° WNW 07:45:54 34° WNW 07:50:57 10° N
Resurs 1-4 Rocket 2.2 07:41:37 10° NNE 07:46:52 64° ESE 07:47:22 61° SE
Cosmos 1821 Rocket 3.9 08:00:02 55° S 08:01:29 84° E 08:07:37 10° N
Cosmos 2218 Rocket 4.2 08:03:34 48° WSW 08:04:29 51° W 08:10:30 10° N
Cosmos 1844 Rocket 2.8 08:04:20 51° SSE 08:05:27 63° ESE 08:10:58 10° NNE
Delta 2 Rocket 3.8 08:07:47 53° E 08:07:47 53° E 08:11:06 10° E
Cosmos 2366 rocket 4.5 08:10:21 40° WSW 08:11:19 43° W 08:17:15 10° N
ALOS 3.5 08:07:44 10° NNE 08:11:58 34° E 08:13:25 28° SE
Cosmos 1437 Rocket 2.9 08:12:41 67° N 08:12:41 67° N 08:16:02 10° N
NOSS 3-2 (C) 3.9 08:12:44 34° W 08:13:57 38° NW 08:19:22 10° NNE
Cosmos 1544 Rocket 4.3 08:14:32 10° NNW 08:18:03 40° WNW 08:18:03 40° WNW
Cosmos 1680 Rocket 3.4 08:14:13 10° NNW 08:19:23 70° WSW 08:20:14 58° SSW
USA 267 3.2 08:14:57 10° NE 08:21:31 79° SE 08:24:01 41° SSW
Cosmos 2112 Rocket 3.8 08:16:28 10° NNW 08:21:40 81° WSW 08:23:06 49° S
Cosmos 1818 3.4 08:16:25 10° NNW 08:21:55 85° WSW 08:24:48 29° SSE
Cosmos 2228 3.3 08:18:08 10° NNW 08:21:59 53° WNW 08:21:59 53° WNW
MSX 4.1 08:18:39 10° N 08:24:11 51° WNW 08:25:33 42° WSW
COSMOS 2441 4.4 08:23:36 10° N 08:28:21 65° WNW 08:29:14 53° SW
SL-16 R/B 3.6 08:25:09 10° NW 08:28:24 22° W 08:28:24 22° W
SL-16 R/B 2.9 08:28:35 10° SSE 08:34:44 63° ENE 08:40:53 10° N
Cosmos 1603 4.1 08:29:04 10° NNW 08:34:46 63° ENE 08:40:24 10° SSE
IDEFIX/ARIANE 42P 3.6 08:32:39 10° N 08:37:09 30° WNW 08:38:13 27° W
CZ-2C R/B 2.7 08:37:15 44° SW 08:38:25 52° W 08:43:36 10° NNW
Cosmos 1934 Rocket 4.2 08:36:19 25° S 08:40:12 72° E 08:46:34 10° N
SEDSat Delta rocket 3.2 08:41:06 44° SSE 08:41:06 44° SSE 08:44:39 10° E
CZ-2C R/B 3.5 08:38:23 10° N 08:43:27 45° WNW 08:44:53 36° WSW
Cosmos 1943 3.1 08:39:02 10° NNW 08:44:34 64° WSW 08:47:43 26° S
CZ-2D R/B 3.0 08:42:38 10° N 08:47:24 35° WNW 08:48:55 29° WSW
FENGYUN 3A 3.9 08:45:38 10° N 08:50:51 52° WNW 08:52:54 34° SW
Cosmos 1606 Rocket 3.4 08:49:55 10° N 08:54:21 74° W 08:56:16 33° S
Envisat 3.8 08:49:40 10° NNE 08:54:34 48° E 08:58:28 16° S
ASTEX 1 3.3 08:52:22 31° S 08:54:38 71° W 08:59:30 10° N
Cosmos 921 Rocket 2.8 08:50:56 10° NNW 08:55:09 86° ENE 08:57:56 20° SSE
Cosmos 1048 Rocket 4.4 08:50:55 10° N 08:56:07 64° ENE 09:01:21 10° SSE
Cosmos 1125 Rocket 3.4 08:57:56 30° SSW 09:00:38 86° WNW 09:05:57 10° NNE
CZ-2C R/B 3.6 09:01:08 10° NNE 09:05:20 35° E 09:09:33 10° SSE
Orbus 7S? 3.8 09:03:01 10° NW 09:06:29 89° WSW 09:13:51 10° SE
Iridium 2 3.7 09:09:46 31° NW 09:09:46 31° NW 09:11:32 10° NNW
Cosmos 1726 Rocket 3.5 09:05:25 10° NNW 09:09:49 67° W 09:12:35 22° S
Cosmos 1238 Rocket 3.9 09:06:55 10° NNE 09:09:53 33° E 09:12:36 10° SSE
Cosmos 494 Rocket 4.0 09:06:54 10° NNW 09:12:04 62° WSW 09:17:13 10° S
ADEOS II 3.1 09:08:22 10° N 09:12:53 30° WNW 09:15:11 22° WSW
Cosmos 1812 2.5 09:09:20 10° N 09:12:55 81° E 09:15:37 16° S
Cosmos 2150 Rocket 4.3 09:09:20 18° S 09:13:13 65° ESE 09:18:27 10° NNE
Cosmos 2058 2.7 09:12:19 27° SSW 09:14:27 77° W 09:18:31 10° N
IRAS Rocket 4.3 09:11:51 10° N 09:17:16 63° WNW 09:20:58 21° SSW
GOES 2 Rocket 4.5 09:21:11 18° S 09:21:11 18° S 09:24:04 10° SSE
SAR-Lupe-4 4.2 09:17:58 10° N 09:21:17 38° WNW 09:22:35 27° WSW
USA 81 4.0 09:19:11 10° N 09:24:26 72° W 09:29:40 10° S
YAOGAN 6 3.3 09:21:38 10° NNE 09:24:40 42° E 09:27:31 11° S
Resurs 1-4 Rocket 4.1 09:23:21 10° NNW 09:26:03 14° WNW 09:28:26 11° W
ATLAS 5 CENTAUR R/B 1.1 09:25:49 23° SSW 09:27:40 60° ESE 09:30:59 10° NE
NOSS 2-2 (E) 3.6 09:25:46 18° S 09:28:10 49° ESE 09:31:15 10° NE
Timation 2 Rocket 4.3 09:23:52 19° SW 09:28:39 60° WNW 09:35:01 10° NNE
Iridium 4 Rocket 3.2 09:24:33 10° N 09:29:05 77° W 09:34:02 10° S
UNK 3.8 09:25:38 10° S 09:30:10 59° W 09:34:43 10° NNW
Cosmos 1602 Rocket 4.5 09:33:13 10° SSE 09:37:30 49° E 09:41:49 10° NNE
Cosmos 724 4.4 09:33:48 10° NNW 09:39:38 82° ENE 09:45:31 10° SSE
Cosmos 1544 3.2 09:42:30 22° WSW 09:43:30 29° W 09:45:51 10° NNW
Thor Agena Rocket 3.9 09:39:22 10° NNE 09:44:39 70° ESE 09:49:52 10° S
NOSS 2-3 (D) 3.2 09:42:01 14° SSW 09:45:05 73° ESE 09:48:49 10° NE
NOAA 11 4.3 09:40:54 10° N 09:46:18 61° WNW 09:51:38 10° SSW
Delta 2 Rocket 3.3 09:43:37 10° W 09:47:38 63° SSW 09:52:03 10° ESE
Cosmos 2058 Rocket 3.4 09:43:49 10° NNW 09:48:03 47° W 09:52:14 10° SSW
ALOS 3.8 09:45:35 10° NNW 09:48:51 20° WNW 09:51:42 12° WSW
Cosmos 1758 Rocket 3.6 09:45:20 10° S 09:49:46 83° E 09:54:11 10° N
Cosmos 2298 Rocket 4.4 09:49:11 12° SW 09:53:52 50° WNW 09:59:03 10° N
Cosmos 1666 4.3 09:51:01 10° SSE 09:54:03 30° E 09:57:06 10° NNE
BREEZE-M DEB (TANK) 4.2 09:54:25 12° WSW 09:57:41 60° NNW 10:09:32 10° NE
Cosmos 1607 4.1 09:55:19 10° NW 10:01:28 52° WSW 10:07:27 10° S
NOSS 2-2 (C) 3.9 10:00:13 11° WSW 10:03:04 30° NW 10:05:53 10° N
Cosmos 1500 3.2 10:05:02 10° S 10:08:27 71° E 10:11:53 10° NNE
Cosmos 1626 Rocket 4.4 10:07:30 10° SW 10:11:31 34° W 10:15:33 10° NNW
Cosmos 2278 Rocket 2.8 10:06:03 10° S 10:11:34 58° ESE 10:17:08 10° NNE
NOSS 2-2 (D) 3.5 10:08:23 10° SW 10:11:49 42° WNW 10:14:49 10° NNE
NOSS 2-3 (E) 3.7 10:08:50 10° SW 10:12:20 43° NW 10:15:57 10° NNE
Meteor 2-2 Rocket 4.2 10:07:37 10° N 10:13:15 80° W 10:18:51 10° S
USA 276 3.9 10:11:41 10° S 10:14:04 22° SE 10:16:22 10° E
H-2A R/B 2.4 10:08:48 10° NNE 10:14:06 71° ESE 10:19:13 10° S
Cosmos 1939 Rocket 4.1 10:12:53 10° NNE 10:16:38 41° E 10:20:19 10° S
NOSS 2-3 (C) 3.9 10:14:19 10° SW 10:17:43 37° NW 10:21:14 10° NNE
SL-16 R/B 4.0 10:14:43 10° SW 10:18:39 17° W 10:22:36 10° NW
Cosmos 1862 3.2 10:15:18 10° SSW 10:19:03 62° W 10:22:49 10° N
Cosmos 2346 Rocket 4.4 10:13:27 10° N 10:19:29 77° W 10:25:31 10° S
IRS-1D 4.0 10:15:39 10° N 10:20:33 46° WNW 10:25:20 10° SW
